Location: Veytaux
(46.4185°N, 6.9320°E)
Time: 07:45:02
(UTC+00:00)

AQUA - Pass Details

Date: 27 May 2022
Orbit: 701 x 703 km, 98.2° (Epoch: 02 July)

Event Time Altitude Azimuth Distance (km) Brightness Sun altitude
Rises 01:55:03 0° 10° (N) 3,103 8.4 -14.7°
Reaches altitude 10° 01:57:20 10° 8° (N) 2,180 7.4 -14.5°
Maximum altitude 02:02:03 64° 288° (WNW) 782 3.9 -14.0°
Enters shadow 02:05:11 21° 212° (SSW) 1,561 5.0 -13.7°
